Location: Recife
(8.0585°S, 34.8848°W)
Time: 07:08:15
(UTC-03:00)

Vanguard 3 - Pass Details

Date: 22 April 2026
Orbit: 507 x 3205 km, 33.4° (Epoch: 13 May)

Event Time Altitude Azimuth Distance (km) Brightness Sun altitude
Rises 14:13:11 0° 233° (SW) 7,071 12.2 41.9°
Reaches altitude 10° 14:17:59 10° 230° (SW) 6,122 12.0 40.8°
Maximum altitude 14:37:36 67° 149° (SSE) 2,992 10.3 36.4°
Drops below altitude 10° 14:51:25 10° 68° (ENE) 4,533 10.7 33.2°
Sets 14:54:21 0° 65° (ENE) 5,227 10.9 32.5°
